Location: Jablonec nad Nisou
(50.7170°N, 15.1830°E)
Time: 22:20:32
(UTC+02:00)

ISS - Pass Details

Date: 25 March 2019
Orbit: 408 x 410 km, 51.6° (Epoch: 23 April)

Event Time Altitude Azimuth Distance (km) Brightness Sun altitude
Rises 20:13:05 0° 253° (WSW) 2,331 0.8 -18.0°
Reaches altitude 10° 20:15:10 10° 253° (WSW) 1,471 -0.4 -18.3°
Maximum altitude 20:18:28 85° 165° (SSE) 415 -3.9 -18.7°
Enters shadow 20:18:44 73° 93° (E) 431 -4.0 -18.8°
